VOZ63 YMML-YSSY

Flight info

Callsign VOZ63
Flight time 1h 7m
Altitude 32000
Route DOSEL2/34 DOSEL Y59 RIVET
Aircraft B738/M-SDE2E3FGHIRWXY/LB1

Departure

Time 2026-05-04 07:38
Airport Melbourne Airport (YMML)

Arrival

Time 2026-05-04 08:46
Airport Sydney Kingsford Smith International Airport (YSSY)
Time Latitude Longitude Altitude Speed Heading
2026-05-04 07:16 -37.67129 144.84636 388 ft 0 kts 352°
2026-05-04 07:26 -37.67195 144.84663 387 ft 2 kts 279°
2026-05-04 07:27 -37.67195 144.84666 387 ft 0 kts 267°
2026-05-04 07:28 -37.67195 144.84665 387 ft 0 kts 267°
2026-05-04 07:30 -37.67196 144.84664 387 ft 1 kts 267°
2026-05-04 07:30 -37.67199 144.84629 386 ft 11 kts 261°
2026-05-04 07:31 -37.67211 144.84520 384 ft 13 kts 269°
2026-05-04 07:31 -37.67199 144.84411 383 ft 12 kts 266°
2026-05-04 07:33 -37.67859 144.84248 362 ft 8 kts 261°
2026-05-04 07:33 -37.67868 144.84172 361 ft 9 kts 261°
2026-05-04 07:33 -37.67874 144.84127 361 ft 0 kts 262°
2026-05-04 07:38 -37.67497 144.83898 367 ft 79 kts 352°
2026-05-04 07:38 -37.66769 144.83768 392 ft 130 kts 352°
2026-05-04 07:38 -37.65784 144.83559 686 ft 156 kts 351°
2026-05-04 07:38 -37.64630 144.83311 1225 ft 175 kts 352°
2026-05-04 07:39 -37.63447 144.83140 2256 ft 164 kts 351°
2026-05-04 07:39 -37.62317 144.82995 3107 ft 167 kts 348°
2026-05-04 07:39 -37.61092 144.82875 3563 ft 185 kts 350°
2026-05-04 07:39 -37.59791 144.82841 4280 ft 188 kts 354°
2026-05-04 07:40 -37.58517 144.82930 5226 ft 180 kts 358°
2026-05-04 07:40 -37.57242 144.83392 5734 ft 203 kts 14°
2026-05-04 07:40 -37.55927 144.84156 6223 ft 219 kts 17°
2026-05-04 07:40 -37.54503 144.85039 6619 ft 237 kts 18°
2026-05-04 07:41 -37.52998 144.85982 7316 ft 245 kts 19°
2026-05-04 07:41 -37.51409 144.86961 7857 ft 263 kts 19°
2026-05-04 07:41 -37.49721 144.87986 8570 ft 273 kts 19°
2026-05-04 07:41 -37.47983 144.89041 9374 ft 280 kts 19°
2026-05-04 07:42 -37.46186 144.90129 9994 ft 295 kts 19°
2026-05-04 07:42 -37.44351 144.91467 10467 ft 317 kts 30°
2026-05-04 07:42 -37.42677 144.93426 10915 ft 342 kts 45°
2026-05-04 07:42 -37.41208 144.95894 11343 ft 361 kts 50°
2026-05-04 07:43 -37.39749 144.98512 11987 ft 370 kts 51°
2026-05-04 07:43 -37.38275 145.01207 12746 ft 375 kts 51°
2026-05-04 07:43 -37.36778 145.03905 13547 ft 379 kts 50°
2026-05-04 07:43 -37.35240 145.06623 14259 ft 384 kts 50°
2026-05-04 07:44 -37.33673 145.09364 14979 ft 388 kts 50°
2026-05-04 07:44 -37.32112 145.12099 15705 ft 391 kts 50°
2026-05-04 07:44 -37.30525 145.14897 16434 ft 395 kts 50°
2026-05-04 07:44 -37.28927 145.17722 17168 ft 399 kts 50°
2026-05-04 07:45 -37.27306 145.20583 17887 ft 403 kts 50°
2026-05-04 07:45 -37.25648 145.23498 18149 ft 418 kts 51°
2026-05-04 07:45 -37.23932 145.26506 18587 ft 426 kts 51°
2026-05-04 07:45 -37.22204 145.29541 19148 ft 429 kts 50°
2026-05-04 07:46 -37.20461 145.32604 19711 ft 432 kts 50°
2026-05-04 07:46 -37.18716 145.35663 20007 ft 443 kts 50°
2026-05-04 07:46 -37.16905 145.38829 20372 ft 449 kts 50°
2026-05-04 07:46 -37.15077 145.42027 20836 ft 453 kts 50°
2026-05-04 07:47 -37.13237 145.45244 21296 ft 456 kts 50°
2026-05-04 07:47 -37.11375 145.48494 21770 ft 459 kts 49°
2026-05-04 07:47 -37.09505 145.51750 22228 ft 462 kts 49°
2026-05-04 07:49 -36.96186 145.74861 24893 ft 476 kts 47°
2026-05-04 07:49 -36.94239 145.78225 25205 ft 478 kts 47°
2026-05-04 07:49 -36.92284 145.81603 25551 ft 479 kts 46°
2026-05-04 07:50 -36.90323 145.84986 25800 ft 482 kts 46°
2026-05-04 07:50 -36.88352 145.88382 26115 ft 483 kts 46°
2026-05-04 07:50 -36.86377 145.91785 26454 ft 484 kts 46°
2026-05-04 07:50 -36.84400 145.95187 26832 ft 484 kts 46°
2026-05-04 07:51 -36.82423 145.98586 27235 ft 483 kts 45°
2026-05-04 07:51 -36.80451 146.01971 27586 ft 482 kts 45°
2026-05-04 07:51 -36.78478 146.05354 27956 ft 482 kts 45°
2026-05-04 07:51 -36.76510 146.08725 28391 ft 480 kts 45°
2026-05-04 07:52 -36.74569 146.12047 28753 ft 479 kts 45°
2026-05-04 07:52 -36.72576 146.15453 29111 ft 480 kts 45°
2026-05-04 07:52 -36.70630 146.18776 29479 ft 480 kts 45°
2026-05-04 07:52 -36.68661 146.22135 29864 ft 479 kts 45°
2026-05-04 07:53 -36.66697 146.25484 30220 ft 479 kts 45°
2026-05-04 07:54 -36.52830 146.49028 31031 ft 487 kts 45°
2026-05-04 07:55 -36.48813 146.55821 31019 ft 487 kts 45°
2026-05-04 07:55 -36.44803 146.62583 31029 ft 485 kts 45°
2026-05-04 07:56 -36.40811 146.69306 31028 ft 483 kts 45°
2026-05-04 07:56 -36.36824 146.76002 31044 ft 482 kts 45°
2026-05-04 07:57 -36.32832 146.82696 31028 ft 483 kts 45°
2026-05-04 07:57 -36.28834 146.89387 31028 ft 483 kts 45°
2026-05-04 07:58 -36.24836 146.96067 31044 ft 482 kts 45°
2026-05-04 07:58 -36.20851 147.02709 31035 ft 482 kts 45°
2026-05-04 07:59 -36.16839 147.09383 31039 ft 484 kts 45°
2026-05-04 07:59 -36.12825 147.16053 31031 ft 483 kts 45°
2026-05-04 08:00 -36.08806 147.22712 31061 ft 483 kts 44°
2026-05-04 08:02 -35.92721 147.49243 31054 ft 481 kts 44°
2026-05-04 08:02 -35.88700 147.55838 31060 ft 480 kts 44°
2026-05-04 08:03 -35.84670 147.62437 31055 ft 482 kts 44°
2026-05-04 08:03 -35.80644 147.69026 31061 ft 481 kts 43°
2026-05-04 08:04 -35.76623 147.75591 31067 ft 479 kts 43°
2026-05-04 08:04 -35.72619 147.82104 31087 ft 481 kts 43°
2026-05-04 08:05 -35.68557 147.88711 31085 ft 481 kts 43°
2026-05-04 08:05 -35.64544 147.95228 31060 ft 480 kts 43°
2026-05-04 08:06 -35.60502 148.01769 31090 ft 481 kts 42°
2026-05-04 08:06 -35.56442 148.08332 31113 ft 481 kts 43°
2026-05-04 08:08 -35.40919 148.33310 31113 ft 482 kts 43°
2026-05-04 08:11 -35.22554 148.62638 31110 ft 482 kts 43°
2026-05-04 08:11 -35.16420 148.72374 31103 ft 483 kts 43°
2026-05-04 08:12 -35.12338 148.78840 31093 ft 483 kts 43°
2026-05-04 08:12 -35.08234 148.85334 31095 ft 482 kts 43°
2026-05-04 08:13 -35.04133 148.91803 31095 ft 481 kts 43°
2026-05-04 08:13 -35.00021 148.98279 31088 ft 482 kts 43°
2026-05-04 08:14 -34.95935 149.04706 31078 ft 482 kts 43°
2026-05-04 08:16 -34.79492 149.30444 31097 ft 482 kts 43°
2026-05-04 08:16 -34.75368 149.36870 31085 ft 482 kts 43°
2026-05-04 08:17 -34.71825 149.43938 31098 ft 495 kts 53°
2026-05-04 08:17 -34.68595 149.51367 31094 ft 497 kts 54°
2026-05-04 08:19 -34.57283 149.77226 28879 ft 492 kts 54°
2026-05-04 08:19 -34.55706 149.80848 28241 ft 481 kts 54°
2026-05-04 08:20 -34.54152 149.84396 27564 ft 471 kts 54°
2026-05-04 08:20 -34.52616 149.87871 26892 ft 463 kts 53°
2026-05-04 08:20 -34.51103 149.91279 26241 ft 455 kts 53°
2026-05-04 08:20 -34.49620 149.94626 25625 ft 448 kts 53°
2026-05-04 08:21 -34.48140 149.97966 24999 ft 450 kts 54°
2026-05-04 08:21 -34.46658 150.01310 24359 ft 451 kts 54°
2026-05-04 08:21 -34.45171 150.04663 23718 ft 453 kts 54°
2026-05-04 08:21 -34.43676 150.08037 22975 ft 454 kts 54°
2026-05-04 08:22 -34.42187 150.11396 22303 ft 453 kts 54°
2026-05-04 08:22 -34.40696 150.14753 21631 ft 452 kts 54°
2026-05-04 08:24 -34.30686 150.37224 16882 ft 396 kts 56°
2026-05-04 08:24 -34.29392 150.40107 16258 ft 384 kts 55°
2026-05-04 08:24 -34.28137 150.42903 15637 ft 374 kts 55°
2026-05-04 08:24 -34.26913 150.45639 15035 ft 364 kts 55°
2026-05-04 08:25 -34.25725 150.48299 14446 ft 355 kts 56°
2026-05-04 08:25 -34.24556 150.50915 13872 ft 354 kts 55°
2026-05-04 08:25 -34.23374 150.53544 13214 ft 357 kts 55°
2026-05-04 08:25 -34.22182 150.56195 12576 ft 359 kts 55°
2026-05-04 08:26 -34.21008 150.58822 12257 ft 345 kts 56°
2026-05-04 08:27 -34.14022 150.74363 9268 ft 282 kts 55°
2026-05-04 08:28 -34.13090 150.76432 8730 ft 279 kts 54°
2026-05-04 08:28 -34.12168 150.78478 8229 ft 276 kts 54°
2026-05-04 08:28 -34.11254 150.80504 7719 ft 274 kts 54°
2026-05-04 08:28 -34.10345 150.82518 7209 ft 272 kts 54°
2026-05-04 08:29 -34.09446 150.84511 6723 ft 270 kts 54°
2026-05-04 08:29 -34.08552 150.86497 6224 ft 269 kts 55°
2026-05-04 08:29 -34.07679 150.88441 6044 ft 264 kts 54°
2026-05-04 08:31 -34.04206 151.02950 6041 ft 294 kts 127°
2026-05-04 08:33 -34.15448 151.09663 4879 ft 236 kts 170°
2026-05-04 08:33 -34.17029 151.10069 4628 ft 230 kts 171°
2026-05-04 08:35 -34.28117 151.12924 3984 ft 235 kts 170°
2026-05-04 08:35 -34.29722 151.13362 3986 ft 242 kts 163°
2026-05-04 08:35 -34.31115 151.14451 3992 ft 237 kts 128°
2026-05-04 08:35 -34.31820 151.16206 4002 ft 232 kts 94°
2026-05-04 08:37 -34.26009 151.22730 3393 ft 185 kts 23°
2026-05-04 08:37 -34.24913 151.23492 3131 ft 179 kts 23°
2026-05-04 08:37 -34.23855 151.24211 3012 ft 174 kts 22°
2026-05-04 08:38 -34.22742 151.24771 2999 ft 171 kts
2026-05-04 08:38 -34.21571 151.24751 3008 ft 167 kts 348°
2026-05-04 08:38 -34.20447 151.24402 3013 ft 169 kts 343°
2026-05-04 08:40 -34.12421 151.22247 3001 ft 168 kts 347°
2026-05-04 08:40 -34.11288 151.21950 2914 ft 170 kts 347°
2026-05-04 08:40 -34.10122 151.21645 2715 ft 171 kts 347°
2026-05-04 08:41 -34.08998 151.21351 2491 ft 160 kts 347°
2026-05-04 08:41 -34.07919 151.21069 2292 ft 159 kts 349°
2026-05-04 08:41 -34.06860 151.20792 2086 ft 150 kts 348°
2026-05-04 08:41 -34.05842 151.20526 1897 ft 150 kts 348°
2026-05-04 08:42 -34.04866 151.20270 1720 ft 137 kts 349°
2026-05-04 08:42 -34.03926 151.20025 1548 ft 139 kts 350°
2026-05-04 08:42 -34.03003 151.19783 1353 ft 132 kts 350°
2026-05-04 08:42 -34.02087 151.19544 1165 ft 139 kts 351°
2026-05-04 08:43 -34.01150 151.19300 984 ft 136 kts 350°
2026-05-04 08:43 -34.00181 151.19048 816 ft 149 kts 351°
2026-05-04 08:43 -33.99188 151.18787 618 ft 141 kts 351°
2026-05-04 08:43 -33.98268 151.18543 412 ft 135 kts 351°
2026-05-04 08:44 -33.97327 151.18297 242 ft 140 kts 351°
2026-05-04 08:44 -33.96359 151.18046 83 ft 145 kts 350°
2026-05-04 08:46 -33.94492 151.17693 29 ft 0 kts 21°
2026-05-04 08:46 -33.94437 151.17715 29 ft 17 kts 18°
2026-05-04 08:46 -33.94318 151.17730 28 ft 16 kts 349°
2026-05-04 08:47 -33.94211 151.17698 29 ft 18 kts 346°
2026-05-04 08:47 -33.94090 151.17661 28 ft 17 kts 346°
2026-05-04 08:47 -33.93978 151.17628 28 ft 16 kts 346°
2026-05-04 08:47 -33.93908 151.17610 28 ft 9 kts 352°
2026-05-04 08:48 -33.93846 151.17595 28 ft 10 kts 349°
2026-05-04 08:48 -33.93778 151.17578 28 ft 11 kts 347°
2026-05-04 08:48 -33.93725 151.17564 28 ft 0 kts 348°
2026-05-04 08:49 -33.93710 151.17561 28 ft 8 kts 351°
2026-05-04 08:50 -33.93576 151.17902 29 ft 0 kts 100°